Temp
-0 -1 -1 -1 -2 -1 -2 -2 -3 -4 -5 -4 -4 -5 -5 -5 -5 -5 -5 -5 -6 -5
-1 -1 -2 -2 -2 -2 -3 -3 -3 -5 -5 -5 -5 -5 -5 -5 -6 -6 -6 -6 -6 -6
-1 -2 -2 -3 -3 -3 -4 -4 -5 -5 -6 -5 -6 -6 -6 -6 -6 -7 -7 -7 -7 -7
-2 -3 -3 -3 -4 -4 -5 -4 -5 -6 -6 -6 -6 -7 -7 -7 -7 -8 -8 -8 -7 -7
-3 -4 -4 -4 -4 -5 -5 -5 -6 -6 -7 -7 -7 -7 -7 -8 -8 -9 -8 -8 -8 -8
-4 -4 -4 -5 -5 -5 -5 -6 -6 -7 -7 -8 -8 -8 -8 -9 -9 -9 -9 -9 -9 -8
-4 -5 -5 -5 -5 -5 -6 -6 -6 -7 -8 -8 -8 -8 -9 -10 -10 -10 -9 -9 -9 -9
-5 -5 -5 -5 -6 -6 -6 -6 -6 -7 -8 -8 -8 -8 -9 -10 -11 -10 -9 -9 -9 -9
-5 -5 -5 -6 -6 -6 -6 -6 -6 -6 -8 -9 -8 -9 -9 -10 -11 -10 -9 -9 -9 -10
-5 -6 -6 -6 -6 -6 -6 -6 -6 -6 -8 -8 -8 -9 -10 -11 -11 -10 -9 -9 -9 -10
-6 -6 -6 -6 -6 -6 -7 -6 -6 -7 -8 -8 -8 -10 -10 -12 -11 -10 -10 -10 -10 -10
-7 -7 -7 -7 -7 -7 -7 -7 -7 -7 -8 -8 -9 -10 -11 -12 -12 -11 -11 -11 -11 -10
-7 -7 -7 -7 -7 -7 -7 -7 -8 -8 -9 -9 -9 -11 -12 -12 -12 -12 -12 -12 -11 -11
-8 -8 -8 -8 -8 -8 -8 -8 -9 -9 -9 -10 -10 -11 -12 -13 -13 -13 -13 -13 -12 -12
Height
1511 1509 1508 1506 1504 1504 1501 1498 1493 1488 1483 1482 1479 1473 1469 1464 1461 1457 1453 1450 1446 1442
1508 1507 1504 1503 1500 1499 1497 1495 1491 1486 1482 1479 1476 1470 1467 1464 1458 1453 1449 1446 1443 1438
1504 1502 1502 1500 1498 1496 1494 1491 1487 1483 1479 1477 1472 1468 1465 1460 1454 1450 1446 1442 1438 1434
1500 1499 1498 1498 1495 1493 1491 1488 1484 1481 1477 1473 1469 1465 1461 1455 1450 1446 1441 1438 1434 1429
1499 1498 1493 1494 1492 1489 1488 1485 1482 1478 1474 1470 1465 1462 1458 1452 1447 1442 1437 1433 1428 1423
1496 1494 1492 1490 1489 1487 1485 1482 1479 1475 1470 1466 1462 1458 1454 1450 1444 1439 1434 1429 1424 1418
1493 1490 1488 1486 1486 1485 1483 1480 1477 1472 1468 1463 1459 1456 1451 1446 1440 1434 1430 1425 1420 1414
1489 1487 1486 1485 1483 1482 1481 1478 1475 1471 1466 1461 1458 1452 1447 1442 1436 1430 1425 1421 1416 1410
1487 1484 1484 1483 1481 1481 1479 1476 1473 1469 1464 1459 1457 1449 1445 1439 1432 1427 1422 1416 1410 1404
1484 1483 1482 1480 1480 1478 1476 1473 1470 1467 1462 1459 1456 1446 1441 1435 1429 1425 1419 1413 1406 1399
1482 1480 1479 1478 1477 1476 1473 1471 1468 1465 1461 1457 1453 1445 1438 1432 1427 1422 1416 1409 1403 1396
1479 1477 1476 1476 1475 1473 1470 1468 1465 1462 1458 1455 1450 1442 1435 1430 1423 1418 1412 1405 1399 1393
1476 1475 1475 1474 1472 1470 1468 1466 1463 1459 1456 1452 1447 1441 1433 1428 1421 1414 1407 1401 1395 1390
1474 1473 1473 1472 1470 1467 1465 1462 1460 1457 1453 1449 1444 1438 1431 1426 1419 1412 1404 1397 1390 1384
Wind_Speed
10 10 11 12 13 14 16 16 18 19 20 19 20 23 22 21 20 21 23 24 24 28
10 12 12 13 12 13 14 17 18 20 20 19 21 23 20 21 21 22 24 25 27 28
11 11 12 11 12 14 14 16 18 19 19 18 21 20 20 22 23 22 24 25 26 29
10 10 10 11 12 13 15 16 17 18 20 18 19 20 21 23 22 24 25 26 28 31
8 9 9 10 12 14 14 16 17 18 19 18 19 19 21 23 24 25 28 30 30 28
7 8 9 11 13 14 15 16 16 18 18 18 20 19 21 23 26 27 29 30 28 28
7 8 10 11 13 14 15 16 17 18 17 18 19 20 20 26 30 30 28 27 27 27
6 8 9 11 12 14 15 15 16 18 18 19 19 20 29 34 30 29 28 28 29 28
6 8 9 11 12 14 15 15 16 17 17 20 19 26 30 36 31 27 29 31 34 30
7 8 10 11 13 14 14 15 16 17 18 19 20 26 33 36 28 28 27 31 32 32
6 8 10 11 12 14 15 16 16 17 19 19 20 27 34 32 27 25 27 29 29 30
6 8 9 11 12 13 15 16 17 18 19 20 21 26 30 29 29 26 27 28 26 28
6 8 9 10 12 13 14 15 16 18 18 20 21 25 28 29 30 29 32 29 27 27
6 8 8 10 11 13 13 15 16 18 19 19 21 23 26 28 29 31 33 32 30 32
Wind_Direction
342 340 338 327 329 329 326 325 323 319 323 327 322 318 323 324 319 318 310 311 310 304
340 334 332 330 330 325 325 321 322 323 324 326 322 320 324 321 318 317 316 316 309 305
334 332 330 333 329 327 323 326 323 320 325 327 322 323 321 319 313 320 313 312 308 309
330 330 333 329 328 325 328 325 326 328 324 325 323 324 325 318 323 318 317 315 312 309
329 329 337 331 332 329 328 327 326 325 324 325 323 327 324 321 323 322 319 317 313 308
324 331 337 335 332 333 329 329 326 324 327 325 326 330 319 325 326 323 320 317 315 312
328 334 335 335 331 330 329 328 328 327 329 327 334 327 321 327 326 324 324 324 318 315
333 340 336 332 333 329 329 328 329 330 329 330 336 313 318 323 327 330 332 324 323 318
337 344 335 334 335 330 329 330 331 331 329 337 334 315 320 322 330 341 333 323 324 325
343 343 338 337 334 330 331 331 333 332 331 334 332 319 322 328 342 333 329 322 326 326
341 341 342 337 334 334 333 334 331 331 330 331 328 322 323 334 338 332 326 325 327 323
343 346 342 336 335 334 335 333 333 330 332 331 331 326 327 339 339 334 330 328 326 324
349 344 341 336 335 334 335 331 333 330 332 332 331 331 332 339 339 335 331 330 329 323
353 348 340 337 339 337 336 334 333 332 333 333 332 331 332 338 338 334 333 329 328 323